This is the latest recevied weather packets stored in our database for station/object WS4FSC-7. If no packets are shown the sender has not sent any weather packets the latest 10 day(s).
| Time | Temp. | Humidity | Pressure | Rain* | Wind** | Luminosity | Snow |
|---|---|---|---|---|---|---|---|
| 1787865291 | 30.56° C | 66% | 1014 hPa | - | - | 188 W/m² | - |
| 1787864391 | 30° C | 65% | 1014 hPa | - | - | 193 W/m² | - |
| 1787863850 | 30° C | 67% | 1015 hPa | - | - | 234 W/m² | - |
| 1787863671 | 29.44° C | 70% | 1014 hPa | - | - | 378 W/m² | - |
| 1787862951 | 29.44° C | 70% | 1015 hPa | - | - | 382 W/m² | - |
| 1787862231 | 28.33° C | 73% | 1015 hPa | - | - | 414 W/m² | - |
| 1787861871 | 28.33° C | 75% | 1015 hPa | - | - | 425 W/m² | - |
| 1787861331 | 27.78° C | 74% | 1016 hPa | - | - | 319 W/m² | - |
| 1787861150 | 27.78° C | 74% | 1016 hPa | - | - | 239 W/m² | - |
| 1787860430 | 28.89° C | 66% | 1016 hPa | - | - | 153 W/m² | - |
| 1787859892 | 29.44° C | 67% | 1016 hPa | - | - | 221 W/m² | - |
| 1787859711 | 29.44° C | 69% | 1015 hPa | - | - | 247 W/m² | - |
| 1787859531 | 29.44° C | 70% | 1016 hPa | - | - | 163 W/m² | - |
| 1787859351 | 30° C | 69% | 1016 hPa | - | - | 151 W/m² | - |
| 1787859171 | 30° C | 67% | 1016 hPa | - | - | 157 W/m² | - |
| 1787858992 | 30.56° C | 67% | 1016 hPa | - | - | 166 W/m² | - |
| 1787858451 | 30.56° C | 67% | 1016 hPa | - | - | 261 W/m² | - |
| 1787858091 | 30.56° C | 67% | 1016 hPa | - | - | 497 W/m² | - |
| 1787857911 | 30° C | 68% | 1016 hPa | - | - | 283 W/m² | - |
| 1787857558 | 30° C | 67% | 1016 hPa | - | - | 188 W/m² | - |
| 1787856831 | 31.11° C | 62% | 1016 hPa | - | - | 545 W/m² | - |
| 1787856651 | 31.11° C | 62% | 1016 hPa | - | - | 468 W/m² | - |
| 1787856472 | 31.11° C | 63% | 1016 hPa | - | - | 445 W/m² | - |
| 1787855932 | 30.56° C | 63% | 1015 hPa | - | - | 452 W/m² | - |
| 1787855751 | 31.11° C | 62% | 1015 hPa | - | - | 486 W/m² | - |
* Rain since midnight (hover to see other rain measurements)
** Current wind speed in m/s (hover to see current wind gust speed)